Find Starlink 33634

NORAD ID: 63377 Int'l Des: 2025-063 Owner: SPXS Country: US Constellation: starlink operational
LEOCIRCULAR

Current View

Loading 3D Globe...

About Starlink 33634

Starlink 33634 (NORAD 63377) is a starlink constellation satellite (v2 mini) launched Mar 26, 2025 by SPXS of US. It operates in LEO, CIRCULAR orbit with a mass of 575.00 kg.

About Starlink 33634

Description loading...

Upcoming Passes

Passes for default location (London). Set your location on the main map for personalized predictions.

Altitude History

Loading altitude history...

Two-Line Element Set

1 63377U 25063Q 26166.73816849 .00019581 00000-0 67151-3 0 9996
2 63377 53.1608 316.8534 0001114 77.6040 282.5086 15.30198414 69778
Epoch: Jun 15, 2026 • Age: 12 hours

Current Status

Altitude 476.1 km
Velocity 7.63 km/s
Sub-Earth Point 26.71°N, 128.24°E
Launch Date Mar 26, 2025
Age 1.2 years
Type internet

Technical Details

Classification Payload
Mass 575.00 kg
Dry Mass 530.00 kg
Total Mass 575.00 kg
Length 0.30 m
Diameter 4.10 m
Span 29.00 m
Shape Box + pan
Manufacturer SPXS
Bus Type Starlink V2MO
Phase Status In Orbit
Owner/State SPXS/US

Most Searched